Simultaneous Nadir Overpasses (SNOs) Predictions

Prediction of SNOs between LANDSAT-8 and METOP-B Satellite Orbit:

Table of predicted SNOs for the next 14.0 days since TLE Epoch: 4/11/2020
Index Date (LANDSAT-8) Time (LANDSAT-8) Lat,Lon (LANDSAT-8) SZA (LANDSAT-8 ) Date (METOP-B) Time (METOP-B) Lat,Lon (METOP-B) SZA (METOP-B ) Distance(km) Time Diff (sec)
1 04/13/2020 09:16:08 81.09, 79.85 73.79 04/13/2020 09:15:06 81.09, 79.93 73.78 1.46 62
2 04/13/2020 10:05:34 -81.11,-112.18 106.17 04/13/2020 10:05:45 -81.11,-112.16 106.17 0.57 11
3 04/16/2020 04:50:23 81.09, 146.24 72.80 04/16/2020 04:49:29 81.09, 146.25 72.78 0.40 54
4 04/16/2020 05:39:49 -81.11, -45.76 107.16 04/16/2020 05:40:08 -81.11, -45.82 107.16 1.19 19
5 04/19/2020 00:24:38 81.09,-147.29 71.85 04/19/2020 00:23:52 81.08,-147.45 71.80 2.93 46
6 04/19/2020 01:14:04 -81.12, 20.74 108.11 04/19/2020 01:14:30 -81.12, 20.88 108.08 2.38 26
7 04/21/2020 19:58:53 81.07, -81.10 70.87 04/21/2020 19:58:14 81.08, -81.17 70.85 1.14 39
8 04/21/2020 20:48:19 -81.10, 86.96 109.08 04/21/2020 20:48:53 -81.10, 86.81 109.08 2.49 34
9 04/24/2020 15:33:08 81.09, -14.47 69.99 04/24/2020 15:32:36 81.09, -14.52 69.97 1.05 32




NCC Satellite Simultaneous Nadir Overpasses (SNOs) Prediction Service
